This demonstration page uses our WeatherBlox Daily Observations layout. Learn more.

Left ArrowRight Arrow

Hourly Observations for May 31, 2018

Temp ( °F °C ) Dew Point ( °F °C ) Humidity (%) Winds ( mph kmh ) Pressure ( in mb ) Visibility ( mi km ) Precip ( " mm )
12:52 am 00:52 Clear 75 23.9 61 16.1 62 62 Calm 29.62 1003 10 16 0.00 0.00
1:52 am 01:52 Clear 74 23.3 61 16.1 64 64 Calm 29.61 1003 10 16 0.00 0.00
2:52 am 02:52 Clear 70 21.1 62 16.7 76 76 SE 3 6 29.62 1003 10 16 0.00 0.00
3:52 am 03:52 Partly Cloudy 69 20.6 63 17.2 81 81 SSE 7 11 29.65 1004 10 16 0.00 0.00
4:52 am 04:52 Partly Cloudy 69 20.6 63 17.2 81 81 SE 5 7 29.66 1004 10 16 0.00 0.00
5:52 am 05:52 Cloudy 69 20.6 63 17.2 81 81 E 3 6 29.67 1005 10 16 0.00 0.00
6:52 am 06:52 Mostly Cloudy 69 20.6 63 17.2 81 81 ESE 5 7 29.69 1006 10 16 0.00 0.00
7:52 am 07:52 Mostly Sunny 72 22.2 64 17.8 76 76 VRB 5 7 29.70 1006 10 16 0.00 0.00
8:52 am 08:52 Partly Cloudy 77 25 63 17.2 62 62 Calm 29.71 1006 10 16 0.00 0.00
9:52 am 09:52 Partly Cloudy 84 28.9 63 17.2 49 49 NW 6 9 29.71 1006 10 16 0.00 0.00
10:52 am 10:52 Partly Cloudy 87 30.6 61 16.1 42 42 NW 7 11 29.71 1006 10 16 0.00 0.00
11:52 am 11:52 Partly Cloudy 89 31.7 62 16.7 41 41 Calm 29.71 1006 10 16 0.00 0.00
12:52 pm 12:52 Partly Cloudy 91 32.8 61 16.1 37 37 NW 8 13 29.70 1006 10 16 0.00 0.00
1:52 pm 13:52 Partly Cloudy 93 33.9 57 13.9 30 30 WNW 12 19 29.70 1006 10 16 0.00 0.00
2:52 pm 14:52 Partly Cloudy 94 34.4 54 12.2 26 26 NNW 8 13 29.69 1006 10 16 0.00 0.00
3:52 pm 15:52 Partly Cloudy 95 35 51 10.6 23 23 W 14 22 29.70 1006 10 16 0.00 0.00
4:52 pm 16:52 Partly Cloudy 95 35 54 12.2 25 25 WNW 10 17 29.70 1006 10 16 0.00 0.00
5:52 pm 17:52 Partly Cloudy 94 34.4 52 11.1 24 24 VRB 7 11 29.70 1006 10 16 0.00 0.00
6:52 pm 18:52 Partly Cloudy 93 33.9 57 13.9 30 30 WNW 5 7 29.70 1006 10 16 0.00 0.00
7:52 pm 19:52 Mostly Sunny 91 32.8 54 12.2 28 28 W 6 9 29.70 1006 10 16 0.00 0.00
8:52 pm 20:52 Mostly Clear 81 27.2 63 17.2 54 54 NNE 3 6 29.72 1006 10 16 0.00 0.00
9:52 pm 21:52 Mostly Clear 78 25.6 63 17.2 60 60 Calm 29.74 1007 10 16 0.00 0.00
10:52 pm 22:52 Clear 74 23.3 63 17.2 69 69 NW 3 6 29.75 1007 10 16 0.00 0.00
11:52 pm 23:52 Clear 74 23.3 64 17.8 71 71 N 3 6 29.76 1008 10 16 0.00 0.00

Powered by AerisWeather